Miscellaneous Local Product
Issued by NWS Hastings, NE

Home | Current Version | Previous Version | Graphics & Text | Print | Product List | Glossary On
Versions: 1 2 3 4 5 6 7 8 9 10 11 12 13 14 15 16 17 18 19 20 21 22 23 24 25 26 27 28 29 30 31 32 33 34 35 36 37 38 39 40 41 42 43 44 45 46 47 48 49 50
242
AXUS43 KGID 201402
MISGRI

GID CWA HOURLY WEATHER ROUNDUP
NATIONAL WEATHER SERVICE HASTINGS NE
800 AM CST MON NOV 20 2017

NOTE: "FAIR" INDICATES FEW OR NO CLOUDS BELOW 12,000 FEET WITH NO
SIGNIFICANT WEATHER AND/OR OBSTRUCTIONS TO VISIBILITY.

...SOUTH CENTRAL NEBRASKA...

CITY           SKY/WX    TMP DP  RH WIND       PRES   REMARKS
GRAND ISLAND   CLOUDY    37  24  59 SW12      29.72F WCI  29
KEARNEY        CLOUDY    34  22  61 W9        29.74F WCI  27
HASTINGS       CLOUDY    28  21  75 S9        29.75F WCI  19
ORD            CLOUDY    31  20  63 SW6       29.68S WCI  25
YORK           CLOUDY    30  27  86 CALM      29.74F
AURORA         CLOUDY    31  24  76 SW10      29.72S WCI  22
LEXINGTON      CLOUDY    25  19  79 NW3       29.75S
HOLDREGE       CLOUDY    34  23  64 W9        29.75S WCI  27
HEBRON         CLEAR     38  22  52 SW12G18   29.79S WCI  31

...NEBRASKA PANHANDLE...

CITY           SKY/WX    TMP DP  RH WIND       PRES   REMARKS
CHADRON        CLOUDY    31  17  56 S6        29.67S WCI  25
ALLIANCE       CLOUDY    45  10  24 W17       29.68F
SCOTTSBLUFF    CLOUDY    32   9  38 E6        29.72F WCI  26
SIDNEY         CLOUDY    40   9  28 W13       29.77F WCI  32

...WESTERN AND NORTH CENTRAL NEBRASKA...

CITY           SKY/WX    TMP DP  RH WIND       PRES   REMARKS
VALENTINE      CLOUDY    33  18  53 W7        29.62F WCI  27
AINSWORTH      CLOUDY    38  19  45 W9        29.63S WCI  32
ONEILL         CLOUDY    32  22  68 SW8       29.64S WCI  24
BROKEN BOW     CLOUDY    38  18  44 W13       29.70S WCI  30
IMPERIAL       CLOUDY    29  15  56 W9        29.78S WCI  20
NORTH PLATTE   CLOUDY    22  18  85 NW6       29.76S WCI  14
MCCOOK         CLOUDY    28  22  78 SW8       29.78F WCI  20

...EASTERN NEBRASKA...

CITY           SKY/WX    TMP DP  RH WIND       PRES   REMARKS
NORFOLK        CLOUDY    32  24  72 SW7       29.65F WCI  26
SO SIOUX CITY  CLOUDY    28  24  85 SE7       29.68S WCI  21
TEKAMAH        CLOUDY    36  25  64 S10       29.71F WCI  28
COLUMBUS       CLOUDY    33  25  72 S8        29.71F WCI  26
ALBION         CLOUDY    34  23  63 CALM      29.68S
OMAHA EPPLEY   MOCLDY    35  26  69 SE14      29.74F WCI  26
OFFUTT AFB     CLEAR     32  25  77 SE6       29.75F WCI  26
MILLARD        CLEAR     40  26  57 S9        29.75F WCI  34
LINCOLN        CLEAR     39  23  52 S10       29.77F WCI  32
NEBRASKA CITY  CLEAR     39  27  63 SW13      29.80S WCI  31
BEATRICE       CLEAR     39  25  57 S12       29.80S WCI  31
FALLS CITY     CLEAR     41  26  55 S12       29.84F

...NORTHERN KANSAS...

CITY           SKY/WX    TMP DP  RH WIND       PRES   REMARKS
GOODLAND       CLOUDY    34  13  41 W10       29.81F WCI  26
HILL CITY      CLOUDY    27  21  78 W5        29.80F WCI  22
NORTON         SUNNY     25  18  74 SW10      29.77F WCI  15
PHILLIPSBURG   CLEAR     25  19  80 CALM      29.80F
SMITH CENTER   CLEAR     25  19  80 SW6       29.82S WCI  18
HAYS           CLOUDY    27  20  75 W5        29.85R WCI  22
RUSSELL        CLOUDY    30  21  69 S12       29.82F WCI  20
CONCORDIA      CLEAR     40  21  46 S14       29.81F WCI  32
SALINA         CLEAR     39  25  57 S8        29.88R WCI  33
TOPEKA         CLEAR     42  28  57 S10       29.91F



USA.gov is the U.S. government's official web portal to all federal, state and local government web resources and services.